Theta_e
314 314 313 313 313 313 313 313 313 314 314 315 315 316 316 316 316 305 300 304 309 319 322 307 303 304 302 301 308 308 299 295 298 300 300 305 303 308 312 309 310 310 310 312 328
313 313 313 313 313 312 312 313 313 313 314 315 315 316 316 315 308 303 312 317 318 322 302 299 298 301 296 299 304 301 295 298 305 305 304 306 307 306 308 308 307 310 313 314 317
311 312 312 312 313 312 312 311 312 313 313 314 315 315 315 314 302 302 323 322 323 321 303 301 301 298 293 297 300 300 295 301 305 306 307 305 305 309 306 304 307 307 310 313 314
313 312 312 312 312 312 312 311 311 312 313 314 314 314 316 307 291 304 326 324 324 310 304 302 297 293 292 292 297 294 299 303 303 305 303 303 306 305 306 306 311 312 313 313 312
313 313 312 312 312 312 312 311 311 311 311 313 314 315 306 300 303 313 328 323 315 309 303 300 293 290 289 290 292 290 295 297 298 298 298 301 299 300 302 306 308 310 311 311 311
313 312 311 312 311 311 311 311 311 310 311 313 314 316 302 295 306 313 315 315 311 305 302 300 295 295 291 289 289 292 293 294 296 296 297 297 299 299 302 305 305 307 307 307 308
313 312 312 311 311 311 311 312 311 311 312 314 315 314 301 298 308 308 309 305 306 306 301 300 298 295 293 289 291 291 287 290 293 295 294 297 294 296 301 303 302 303 304 304 305
311 311 311 311 311 312 313 313 312 313 313 314 316 308 295 308 309 309 305 304 304 305 304 301 299 295 291 291 290 286 285 281 288 293 294 295 290 297 299 299 299 301 301 303 302
311 312 311 311 311 312 312 312 313 313 314 314 304 299 298 313 304 304 302 299 300 301 301 305 297 292 292 286 283 283 278 281 287 291 292 291 287 295 298 297 297 298 300 301 302
311 311 310 310 311 312 311 311 312 313 313 313 310 298 301 302 304 302 300 300 299 298 297 295 290 287 285 284 278 281 281 283 284 289 290 288 289 293 296 296 296 297 298 300 301
309 310 310 311 311 312 307 300 296 294 302 295 299 300 305 308 306 300 302 300 299 294 287 290 286 282 286 287 287 287 285 284 287 291 290 288 290 291 294 293 293 295 296 297 299
309 309 310 310 311 311 300 299 299 298 292 300 300 304 307 307 299 299 302 295 292 287 289 286 283 289 290 289 288 286 284 284 288 292 290 289 289 292 293 293 294 295 295 296 297
309 309 310 311 311 303 300 301 303 298 290 296 300 299 299 303 297 296 298 295 291 287 285 283 287 292 290 288 287 285 284 286 286 290 290 287 285 287 291 293 294 294 295 295 295
308 309 310 310 303 298 299 305 303 300 286 292 293 297 296 296 293 300 300 296 290 287 288 285 289 289 286 286 288 283 291 289 288 284 278 287 277 284 288 289 291 292 292 294 299
308 309 309 310 297 299 302 303 300 298 276 294 293 298 294 292 294 296 300 295 289 288 287 286 286 285 285 287 291 286 291 288 287 283 280 282 278 281 287 286 288 290 295 298 299
308 308 309 303 298 302 303 301 301 285 278 290 294 293 292 293 293 296 296 296 294 288 287 287 290 288 288 292 291 292 287 284 282 280 275 280 279 278 282 286 289 293 297 299 299
307 308 305 303 297 300 301 298 285 279 292 289 289 291 289 290 292 292 290 288 284 280 280 285 285 291 293 286 288 286 280 274 273 273 274 282 279 282 288 291 291 294 296 298 298
306 306 306 305 301 302 298 289 280 287 287 293 291 290 287 290 290 290 288 285 289 285 281 278 278 288 292 287 283 282 281 274 270 273 273 282 277 281 289 292 296 298 298 298 297
304 300 302 304 305 299 292 279 281 286 290 289 290 286 286 289 288 288 286 286 288 287 282 281 281 290 291 290 288 281 279 282 277 277 273 277 281 287 290 290 295 295 296 295 297
297 299 301 303 301 296 288 286 286 292 292 292 284 288 283 285 285 285 285 291 290 292 288 285 280 288 290 290 289 285 287 277 275 273 272 276 278 279 285 288 290 293 294 295 297
298 295 301 301 300 293 283 285 291 296 295 291 288 286 286 285 285 284 286 290 293 291 289 286 282 283 286 284 282 282 280 281 279 275 270 272 276 286 287 289 290 292 294 294 297
294 290 301 300 289 285 284 290 295 294 296 293 291 289 287 287 285 285 285 289 295 293 287 288 282 279 283 287 289 286 283 282 275 275 278 278 279 290 289 290 293 293 296 296 298
290 292 301 298 283 283 288 291 293 293 292 291 289 291 290 286 283 287 288 294 294 292 288 288 281 277 279 281 285 283 286 285 282 280 279 278 279 291 291 291 293 294 295 298 299
290 286 289 290 288 285 286 288 289 296 293 291 290 290 287 285 286 285 286 293 293 293 299 294 282 281 277 279 281 280 285 285 283 281 280 281 283 288 290 291 292 294 296 296 299
288 285 287 281 283 285 286 288 288 287 291 290 287 288 285 281 283 284 286 288 291 294 290 290 282 283 285 286 287 286 286 287 284 285 282 284 284 288 291 292 293 295 296 297 298
286 285 287 285 286 285 287 285 286 288 287 286 284 288 286 282 284 283 284 283 285 288 287 285 282 283 282 286 287 285 287 287 287 287 286 287 286 293 294 294 293 294 296 297 298
290 289 288 285 284 282 282 285 286 287 289 290 288 286 284 286 288 289 290 289 289 285 284 285 285 283 279 284 284 280 285 286 287 288 286 283 288 292 292 294 294 293 296 296 298
Wind_Speed
17 17 17 17 16 16 15 15 15 15 15 15 15 15 15 16 16 2 7 12 9 13 3 4 2 3 2 2 3 4 2 4 2 4 3 1 4 3 3 3 4 4 3 5 1
18 18 18 18 17 17 17 17 15 15 14 15 15 15 15 15 9 8 13 10 8 2 1 3 2 1 2 3 2 4 4 8 4 2 1 5 3 7 5 10 3 2 6 5 4
19 19 18 18 18 17 17 17 16 15 15 15 15 15 15 12 4 5 5 10 3 4 1 2 2 1 2 2 4 4 4 2 1 1 4 5 7 4 4 5 3 9 13 10 1
19 19 18 18 19 18 17 16 15 15 15 14 14 13 13 1 2 2 8 8 5 3 3 3 2 2 3 5 2 1 3 2 1 4 4 4 9 5 11 5 6 7 8 6 9
21 20 20 19 19 19 18 16 15 14 13 13 11 10 4 2 8 3 10 8 4 3 1 2 3 3 3 1 2 3 1 2 5 6 6 7 11 14 13 5 6 6 7 9 8
20 21 21 20 20 19 18 16 14 13 13 11 8 6 2 3 1 0 8 5 3 3 2 4 5 5 4 1 2 1 2 4 5 4 5 6 12 4 5 8 9 6 8 8 8
19 21 21 21 21 19 17 15 12 12 12 9 6 2 1 8 1 4 7 5 4 5 3 4 3 1 3 1 1 0 3 4 6 7 8 6 11 8 4 5 6 5 6 8 8
21 22 21 21 21 20 18 17 15 12 9 7 4 1 7 5 3 6 5 4 6 6 4 3 3 5 1 1 6 3 5 1 5 2 5 7 10 5 7 7 7 7 6 4 7
22 20 22 22 21 21 21 19 14 9 6 4 2 2 7 7 2 3 4 3 1 2 3 3 4 3 5 4 4 5 3 3 7 2 2 3 3 5 7 5 5 6 5 5 4
22 21 21 22 22 19 21 15 2 7 4 4 3 1 3 4 5 2 4 4 1 1 4 6 5 4 4 4 3 2 1 1 3 4 5 7 5 5 7 6 6 7 7 5 4
24 23 22 20 21 18 8 2 5 3 2 4 2 3 4 7 3 4 1 3 3 6 2 3 5 3 6 7 2 2 2 3 4 3 5 6 10 7 6 5 8 8 7 8 7
24 24 23 21 19 15 1 5 1 3 6 4 5 5 6 2 4 6 3 2 2 0 2 6 2 5 4 2 3 3 1 2 5 6 6 10 20 11 7 6 7 6 7 8 8
24 23 22 20 18 2 1 1 3 2 1 6 4 4 5 6 4 5 4 3 2 2 1 4 5 2 3 1 3 2 3 2 4 5 6 7 11 4 1 3 4 5 5 6 6
24 22 19 20 2 3 1 5 6 3 4 4 2 4 3 2 4 6 5 5 0 4 4 4 3 2 2 2 3 1 4 2 2 4 2 4 10 5 5 4 3 6 5 5 7
24 21 16 8 2 1 4 7 2 5 5 1 1 1 2 3 2 3 2 3 5 2 4 5 3 1 2 2 2 4 1 3 2 2 3 4 3 6 5 6 6 6 7 7 8
25 19 11 1 1 5 6 5 4 6 1 4 3 4 6 2 4 2 2 5 2 3 1 6 2 1 2 3 3 3 3 5 4 3 3 6 4 5 2 4 4 5 7 7 8
26 19 3 2 3 3 4 4 6 5 3 4 3 5 2 4 6 4 2 4 2 1 3 3 2 1 2 4 4 6 6 5 6 3 6 4 4 10 10 12 7 7 8 8 7
26 13 4 3 3 3 4 6 4 1 1 1 2 3 2 5 4 8 3 3 5 4 2 2 6 3 1 4 5 4 7 6 6 4 5 1 10 9 8 8 5 6 7 8 9
15 3 2 3 1 3 6 6 6 3 2 2 5 3 4 3 2 5 5 4 2 2 4 3 5 3 1 2 6 1 3 3 0 1 2 6 8 12 10 6 5 7 6 9 7
3 4 4 7 1 5 6 3 3 3 3 2 1 2 1 3 4 4 3 1 4 1 3 3 3 3 1 1 3 4 5 2 3 3 6 5 8 12 10 11 5 7 9 11 7
4 3 4 6 3 6 4 4 4 5 5 6 5 3 5 3 3 2 4 3 3 2 1 4 3 3 1 4 7 1 0 4 4 5 4 5 7 6 5 5 7 7 9 9 10
2 2 4 3 6 2 0 2 5 5 2 3 3 6 6 6 4 5 6 6 5 6 4 3 4 4 9 3 4 5 7 6 5 4 4 3 16 7 7 4 6 9 12 9 9
2 3 4 4 2 3 6 5 3 4 4 3 2 3 0 5 3 6 6 5 8 7 7 5 1 3 7 4 4 2 4 4 2 2 8 7 12 2 3 7 11 17 10 10 10
3 5 6 6 1 3 5 5 5 3 2 4 4 1 1 3 5 5 3 2 2 5 5 8 6 8 8 6 4 5 8 7 6 6 7 16 27 23 18 17 14 11 8 9 11
4 0 3 4 3 3 1 3 4 5 4 5 2 3 2 4 3 6 4 2 3 5 3 7 8 7 10 12 8 13 16 16 14 19 14 22 21 23 18 13 8 6 7 10 14
3 3 3 3 2 2 2 2 2 5 3 5 2 6 4 5 8 9 2 1 7 4 6 3 4 5 5 9 11 17 18 18 21 19 19 23 25 21 13 5 6 8 9 12 14
2 2 3 3 2 2 3 1 3 5 7 6 4 6 5 9 7 8 9 9 9 5 3 4 4 1 8 3 5 11 13 16 11 9 6 7 9 5 7 9 6 6 10 13 14
Wind_Direction
342 340 338 335 334 332 330 330 326 324 321 318 315 316 319 319 318 355 238 222 191 243 291 305 249 208 188 190 174 117 115 221 203 146 258 26 332 304 261 258 317 351 17 327 319
340 337 335 333 332 332 329 326 322 320 317 315 315 318 319 321 311 241 245 237 236 277 245 39 15 144 148 181 189 154 160 209 159 18 293 315 272 326 326 320 300 358 337 349 14
340 336 332 329 328 326 326 320 317 316 314 314 316 321 320 321 303 257 216 206 211 211 50 65 320 20 159 173 198 165 201 214 89 214 284 283 288 295 302 310 59 325 313 323 61
340 335 332 328 325 323 320 318 313 311 309 309 316 321 319 153 105 351 149 158 160 108 41 91 83 120 169 185 222 129 236 215 237 285 309 276 306 242 248 242 288 291 276 295 310
338 337 334 329 325 321 318 315 308 303 299 303 314 320 335 261 251 279 140 145 117 88 283 148 124 143 184 215 50 128 353 314 291 284 265 280 254 268 263 277 286 313 301 300 306
336 336 334 328 326 322 318 314 306 298 292 298 312 324 289 278 58 269 132 128 142 147 254 190 160 199 123 108 128 206 264 269 264 250 246 245 268 235 293 352 319 301 307 316 324
336 334 332 328 324 322 317 313 306 297 287 290 296 272 328 233 31 357 153 187 187 177 236 220 156 135 134 51 249 299 316 311 225 219 231 204 268 245 21 41 8 352 16 12 7
336 333 329 329 325 319 316 309 300 287 277 269 277 134 249 250 293 293 159 274 228 209 223 282 146 109 85 106 20 85 42 10 289 358 264 160 253 359 10 50 344 331 348 7 339
333 332 329 328 325 323 318 311 292 261 234 205 110 127 280 311 270 257 151 218 213 148 195 117 85 92 34 80 25 5 172 202 313 290 294 159 286 294 335 10 313 311 308 319 324
333 333 329 328 324 326 323 317 118 115 146 183 235 6 288 306 305 248 202 219 31 326 46 49 50 71 39 71 201 233 332 234 242 297 10 305 245 285 300 313 288 292 296 300 286
335 332 330 326 325 329 342 67 17 355 179 210 198 245 262 306 296 283 273 81 62 49 52 13 74 203 243 221 169 77 228 228 259 284 354 287 286 282 262 248 274 277 282 293 287
334 332 329 326 323 323 359 74 33 240 316 240 237 254 266 136 319 302 121 129 72 342 79 22 224 221 262 167 177 180 217 312 306 319 343 305 292 286 239 223 209 236 273 272 321
332 331 329 326 319 11 67 95 337 183 83 300 191 194 233 142 224 260 132 124 163 152 136 154 244 326 29 70 158 200 157 215 232 322 297 324 294 264 318 218 225 245 251 317 301
333 331 331 325 33 315 337 331 331 138 58 310 311 289 145 185 273 223 179 143 75 198 189 225 265 113 356 298 123 341 196 216 261 31 290 60 286 262 232 259 282 290 308 283 294
333 330 331 339 219 60 309 324 314 59 64 266 280 272 11 184 311 275 181 86 201 214 102 259 191 259 283 178 154 213 39 332 307 271 15 266 268 274 322 345 318 285 278 287 287
332 327 328 175 40 252 306 306 53 47 132 334 20 353 350 302 276 270 151 53 115 166 255 250 245 164 197 82 80 67 26 21 50 76 7 263 176 272 169 176 255 252 277 292 311
331 323 267 153 245 309 323 51 42 104 332 328 337 355 343 312 334 13 121 31 167 61 310 339 347 321 108 50 29 73 52 339 347 10 223 208 296 241 264 290 215 253 286 294 300
330 318 208 225 284 334 56 55 85 230 284 330 339 307 75 4 358 338 85 105 38 94 99 157 321 176 171 170 192 204 151 165 235 223 237 57 248 249 216 239 216 237 267 296 305
330 317 324 287 229 74 75 62 196 219 242 313 329 58 337 354 11 3 4 153 158 162 155 157 271 287 166 141 123 152 165 191 156 305 330 223 289 303 280 265 256 295 285 282 298
26 349 301 320 8 62 75 213 220 221 288 117 185 178 315 297 16 31 297 208 162 137 124 179 286 252 272 125 74 153 164 69 12 267 269 260 258 242 287 279 279 292 291 298 303
45 36 266 334 60 44 122 234 277 292 243 181 207 236 225 217 201 239 251 288 166 163 52 148 150 259 322 201 195 18 42 79 118 148 206 306 260 220 235 246 273 274 281 283 291
44 16 316 22 43 9 136 284 293 269 339 277 181 204 203 201 224 218 227 223 180 159 189 189 154 244 235 242 261 173 196 158 135 227 216 240 268 272 259 299 314 288 291 287 274
46 277 326 64 72 328 316 300 277 319 319 315 281 184 71 205 246 209 226 225 176 160 173 182 230 327 332 12 359 154 182 192 181 102 222 258 262 235 315 309 300 304 295 295 292
54 4 332 39 48 78 346 278 293 333 245 331 287 31 321 237 226 263 232 286 355 194 201 151 179 183 218 231 159 254 242 204 200 241 258 233 276 277 287 289 289 290 281 282 283
28 187 182 308 353 346 296 295 299 322 348 357 31 71 24 284 287 246 257 284 294 243 253 160 213 207 236 245 249 254 260 259 239 250 245 274 272 281 288 286 273 274 280 294 310
57 20 355 282 286 307 218 250 286 343 308 288 273 310 267 223 218 262 277 207 236 275 174 177 244 174 256 235 245 258 255 255 253 254 254 262 271 273 280 247 265 283 298 299 297
340 6 97 291 341 40 229 289 295 360 264 249 349 302 254 259 251 237 228 229 233 211 216 192 184 228 274 225 314 277 247 243 242 230 206 240 258 340 268 280 269 274 283 291 292